Voltar ao catálogo

COSMOS 1275 DEB

LostPO
NORAD 42222·DEBRIS·🇷🇺 Russia

Lançado Jun 4, 1981 de Plesetsk Cosmodrome

Loading…

Próximas Passagens (próximas 24 horas)

TLE

ObsoletoSource: Space-Track

Época: Jun 10, 2024, 21:30 UTC

1 42222U 81053UN  24162.89616937  .00005579  00000-0  32641-2 0  9997
2 42222  82.9753  14.1243 0064435 188.8844 171.1195 14.07111834 96815

Acompanhe COSMOS 1275 DEB em tempo real com AllMySat

Download on the App Store